CST,Max TemperatureF,Mean TemperatureF,Min TemperatureF,Max Dew PointF,MeanDew PointF,Min DewpointF,Max Humidity, Mean Humidity, Min Humidity, Max Sea Level PressureIn, Mean Sea Level PressureIn, Min Sea Level PressureIn, Max VisibilityMiles, Mean VisibilityMiles, Min VisibilityMiles, Max Wind SpeedMPH, Mean Wind SpeedMPH, Max Gust SpeedMPH,PrecipitationIn, CloudCover, Events, WindDirDegrees
2012-12-1,52,41,30,51,40,28,100,93,86,30.14,29.96,29.82,4,2,0,16,7,20,0.11,6,Fog-Rain,151
2012-12-2,59,50,41,50,47,39,100,81,62,30.04,29.94,29.84,6,2,0,14,4,17,0.00,5,Fog,191
2012-12-3,64,55,45,58,51,34,100,80,60,29.97,29.81,29.69,10,6,0,28,17,33,0.00,6,Fog,196
2012-12-4,53,41,29,33,29,20,92,68,44,30.36,30.17,29.99,10,10,10,17,9,22,0.00,0,,306
2012-12-5,37,30,22,29,18,14,75,60,44,30.45,30.33,30.14,10,10,10,23,10,28,0.00,0,,111
2012-12-6,46,40,34,36,33,29,85,73,60,30.13,29.98,29.90,10,10,9,22,12,26,T,6,Snow,211
2012-12-7,40,36,31,32,27,23,89,72,54,29.99,29.96,29.92,10,8,2,15,8,18,0.01,6,Snow,33
2012-12-8,38,32,26,29,28,23,92,81,70,30.09,30.03,29.93,10,9,2,15,8,20,T,4,Snow,63
2012-12-9,35,31,26,34,31,23,100,91,82,30.06,29.87,29.75,10,3,0,24,10,28,0.33,8,Fog-Snow,73
2012-12-10,29,22,15,27,21,13,100,92,84,30.00,29.89,29.76,10,9,4,22,11,26,T,7,,287
2012-12-11,32,23,13,24,18,11,96,80,63,30.12,30.01,29.95,10,10,9,15,10,,T,4,Snow,216
2012-12-12,44,33,22,25,22,18,81,61,41,30.20,30.15,30.10,10,10,10,26,14,31,0.00,0,,190
2012-12-13,46,37,28,25,22,20,72,57,41,30.17,30.12,30.05,10,10,10,23,12,31,0.00,0,,201
2012-12-14,48,37,25,34,28,21,81,67,53,30.17,30.07,29.91,10,10,10,21,8,24,0.00,2,,159
2012-12-15,46,42,38,45,42,36,100,85,70,29.90,29.60,29.49,7,3,0,26,13,32,0.66,8,Fog-Rain,175
2012-12-16,44,37,29,43,34,28,100,95,89,29.77,29.67,29.54,10,6,1,30,11,35,0.02,8,Rain,280
2012-12-17,29,27,25,29,26,24,100,93,85,29.77,29.74,29.70,7,4,0,12,4,18,0.00,8,Fog,320
2012-12-18,34,30,25,34,29,23,100,92,84,29.90,29.68,29.54,7,3,0,18,9,23,T,8,Fog,55
2012-12-19,34,32,30,30,29,28,100,91,82,30.04,29.92,29.74,6,3,0,22,8,28,0.40,8,Fog-Snow,63
2012-12-20,32,27,21,31,26,17,100,91,81,29.82,29.52,29.31,7,2,0,40,27,52,0.75,7,Fog-Rain-Snow,356
2012-12-21,21,14,6,16,9,2,84,73,61,30.28,30.12,29.82,10,9,5,30,15,38,0.00,1,Snow,321
2012-12-22,23,11,-1,14,7,-2,96,82,68,30.27,30.12,29.99,10,10,6,12,4,14,0.00,0,,167
2012-12-23,21,15,9,19,14,9,100,90,80,30.09,30.04,29.98,9,6,3,23,10,29,T,5,,38
2012-12-24,24,19,14,22,19,10,100,90,80,30.22,29.99,29.89,10,5,1,15,8,18,0.03,8,Snow,360
2012-12-25,18,12,5,9,6,1,92,80,67,30.40,30.35,30.24,10,10,10,20,10,22,0.00,0,,17
2012-12-26,25,18,10,18,12,5,88,81,74,30.31,30.22,30.13,10,10,9,21,11,23,T,6,,2
2012-12-27,24,16,8,20,14,6,91,81,71,30.25,30.19,30.09,10,10,9,14,9,17,0.00,5,,41
2012-12-28,27,25,23,25,23,20,100,91,81,30.11,29.98,29.90,10,3,1,8,5,10,0.06,8,Snow,42
2012-12-29,24,14,3,22,14,1,96,85,73,30.26,30.07,29.91,10,7,4,20,12,23,T,6,,303
2012-12-30,34,17,-1,23,10,-3,100,82,64,30.35,30.21,30.01,10,6,4,24,10,33,0.00,0,,198
2012-12-31,33,22,10,23,11,3,88,76,64,30.24,30.12,29.97,10,9,7,22,10,25,0.00,3,,309